TimeCDT,TemperatureF,Dew PointF,Humidity,Sea Level PressureIn,VisibilityMPH,Wind Direction,Wind SpeedMPH,Gust SpeedMPH,PrecipitationIn,Events,Conditions,WindDirDegrees,DateUTC
12:55 AM,60.8,57.6,89,30.09,10.0,SE,3.5,-,N/A,,Clear,140,2012-10-04 05:55:00
1:55 AM,59.4,56.5,90,30.10,10.0,Calm,Calm,-,N/A,,Clear,0,2012-10-04 06:55:00
2:55 AM,59.0,56.5,91,30.11,10.0,Calm,Calm,-,N/A,,Clear,0,2012-10-04 07:55:00
3:55 AM,57.9,56.7,96,30.11,10.0,SE,3.5,-,N/A,,Clear,130,2012-10-04 08:55:00
4:55 AM,55.8,54.9,97,30.13,10.0,SE,4.6,-,N/A,,Clear,140,2012-10-04 09:55:00
5:55 AM,57.7,57.0,97,30.14,10.0,SE,4.6,-,N/A,,Clear,140,2012-10-04 10:55:00
6:55 AM,56.5,56.3,99,30.16,10.0,Calm,Calm,-,N/A,,Clear,0,2012-10-04 11:55:00
7:55 AM,58.3,57.9,99,30.17,10.0,Calm,Calm,-,N/A,,Clear,0,2012-10-04 12:55:00
8:55 AM,64.2,60.6,88,30.19,10.0,South,4.6,-,N/A,,Clear,170,2012-10-04 13:55:00
9:55 AM,70.0,62.6,77,30.20,10.0,SSE,4.6,-,N/A,,Clear,150,2012-10-04 14:55:00
10:55 AM,76.1,64.2,67,30.20,10.0,South,8.1,-,N/A,,Clear,170,2012-10-04 15:55:00
11:55 AM,79.3,64.9,61,30.21,10.0,South,12.7,-,N/A,,Clear,170,2012-10-04 16:55:00
12:55 PM,81.0,64.9,58,30.19,10.0,SSE,8.1,-,N/A,,Partly Cloudy,150,2012-10-04 17:55:00
1:55 PM,82.6,62.4,50,30.17,10.0,SE,11.5,-,N/A,,Partly Cloudy,130,2012-10-04 18:55:00
2:55 PM,83.1,62.1,49,30.14,10.0,SSE,9.2,-,N/A,,Partly Cloudy,150,2012-10-04 19:55:00
3:55 PM,83.5,62.1,48,30.13,10.0,SE,9.2,-,N/A,,Clear,130,2012-10-04 20:55:00
4:55 PM,83.3,61.3,47,30.12,10.0,SE,12.7,-,N/A,,Clear,140,2012-10-04 21:55:00
5:55 PM,81.1,62.2,52,30.11,10.0,SE,8.1,-,N/A,,Clear,140,2012-10-04 22:55:00
6:55 PM,74.5,63.1,68,30.11,10.0,ESE,5.8,-,N/A,,Clear,120,2012-10-04 23:55:00
7:55 PM,73.0,63.7,72,30.12,10.0,ESE,3.5,-,N/A,,Clear,120,2012-10-05 00:55:00
8:55 PM,70.5,63.5,78,30.13,10.0,Calm,Calm,-,N/A,,Clear,0,2012-10-05 01:55:00
9:55 PM,68.2,64.0,87,30.13,10.0,Calm,Calm,-,N/A,,Clear,0,2012-10-05 02:55:00
10:55 PM,67.5,63.5,87,30.14,10.0,ESE,3.5,-,N/A,,Clear,120,2012-10-05 03:55:00
11:55 PM,68.5,62.4,81,30.13,10.0,SSE,3.5,-,N/A,,Clear,150,2012-10-05 04:55:00